sat.trackr.live / text

‹ back to catalog

GALAXY 33 (G-33)

NORAD 54026 · 2022-128A

PAYLOAD ACTIVE UNKNOWN

§ Identity

Operator
Country
ITSO
Launch date
2022-10-08
Launch site
AFETR
Launch vehicle
Mass (kg)
RCS (m²)

Purposes: comms

External: N2YO · Heavens-Above · Gunter

§ Orbital elements

Epoch: 2026-09-20T04:33:32.747904Z

Period
1,436.09 min
Inclination
0.0151°
Eccentricity
0.0001931
Mean motion
1.00272542 rev/d
Perigee alt
35,778.2 km
Apogee alt
35,794.5 km
Semi-major
42,164.5 km
B*
0.0000e+0
RAAN
214.0848°
Arg perigee
316.7137°
Mean anomaly
123.6853°
Rev number
1,469

§ Raw data

GALAXY 33 (G-33)1 54026U 22128A   26263.18996236  .00000075  00000+0  00000+0 0  99952 54026   0.0151 214.0848 0001931 316.7137 123.6853  1.00272542 14696

JSON: /api/v1/satellites/54026 · /tle

For live sub-satellite position, see the globe view (requires WebGL).

§ Visibility from observer

Set your observer location to see the next 7 days of passes ≥ 10°. The values pass through the URL so the page stays shareable.

No JS? Fill the form by hand. The geolocation button needs JavaScript.